Location: Waco, TX
(31.5480°N, 97.1670°W)
Time: 16:40:07
(UTC-06:00)

ISS - Pass Details

Date: 15 February 2018
Orbit: 402 x 407 km, 51.6° (Epoch: 23 February)

Event Time Altitude Azimuth Distance (km) Brightness Sun altitude
Rises 11:49:28 0° 275° (W) 2,311 -0.2 44.1°
Reaches altitude 10° 11:53:23 10° 323° (NW) 1,454 -1.3 44.4°
Maximum altitude 11:53:46 10° 329° (NNW) 1,445 -1.3 44.4°
Drops below altitude 10° 11:54:08 10° 336° (NNW) 1,453 -1.3 44.4°
Sets 11:58:06 0° 24° (NNE) 2,316 -0.3 44.7°
